This demonstration page uses our WeatherBlox Daily Observations layout. Learn more.

Hourly Observations for January 30, 2015

Temp ( °F °C ) Dew Point ( °F °C ) Humidity (%) Winds ( mph kmh ) Pressure ( in mb ) Visibility ( mi km ) Precip ( " mm )
12:15 am 00:15 Clear 20 -6.7 13 -10.4 75 75 Calm 30.65 1038 10 16.0934 0 0
12:35 am 00:35 Clear 19 -7.1 13 -10.4 78 78 Calm 30.65 1038 7 11.26538 0 0
12:55 am 00:55 Clear 20 -6.8 14 -10.1 78 78 Calm 30.65 1038 10 16.0934 0 0
1:15 am 01:15 Clear 19 -7 14 -10.1 79 79 Calm 30.65 1038 10 16.0934 0 0
1:35 am 01:35 Clear 20 -6.9 14 -10.2 78 78 Calm 30.65 1038 10 16.0934 0 0
1:55 am 01:55 Clear 20 -6.5 13 -10.5 74 74 Calm 30.62 1037 10 16.0934 0 0
2:15 am 02:15 Clear 22 -5.5 16 -9 77 77 Calm 30.59 1036 10 16.0934 0 0
2:35 am 02:35 Clear 21 -6 15 -9.4 77 77 Calm 30.62 1037 10 16.0934 0 0
2:55 am 02:55 Clear 19 -7.3 13 -10.4 79 79 Calm 30.62 1037 10 16.0934 0 0
3:15 am 03:15 Clear 19 -7.3 13 -10.4 79 79 SSE 3 6 30.62 1037 10 16.0934 0 0
3:35 am 03:35 Clear 21 -6.1 15 -9.2 79 79 S 3 6 30.62 1037 10 16.0934 0 0
3:55 am 03:55 Clear 24 -4.2 18 -7.6 77 77 S 6 9 30.59 1036 10 16.0934 0 0
4:15 am 04:15 Clear 22 -5.4 17 -8.5 79 79 SSE 6 9 30.59 1036 10 16.0934 0 0
4:35 am 04:35 Clear 24 -4.7 18 -8 78 78 SSE 6 9 30.59 1036 10 16.0934 0 0
4:55 am 04:55 Clear 22 -5.4 17 -8.3 80 80 SSE 6 9 30.59 1036 10 16.0934 0 0
5:15 am 05:15 Clear 23 -4.8 19 -7.5 82 82 SSE 7 11 30.56 1035 10 16.0934 0 0
5:35 am 05:35 Clear 23 -4.9 19 -7.2 84 84 SSE 8 13 30.56 1035 10 16.0934 0 0
5:55 am 05:55 Clear 24 -4.5 20 -6.8 84 84 SSE 9 15 30.56 1035 10 16.0934 0 0
6:15 am 06:15 Clear 24 -4.7 20 -6.9 85 85 SSE 8 13 30.56 1035 10 16.0934 0 0
6:35 am 06:35 Clear 24 -4.3 20 -6.6 84 84 SSE 9 15 30.56 1035 10 16.0934 0 0
6:55 am 06:55 Clear 24 -4.5 20 -6.6 85 85 SSE 8 13 30.56 1035 10 16.0934 0 0
7:15 am 07:15 Clear 24 -4.4 20 -6.4 86 86 SSE 10 17 30.56 1035 10 16.0934 0 0
7:35 am 07:35 Clear 24 -4.3 20 -6.5 85 85 SSE 9 15 30.56 1035 10 16.0934 0 0
7:55 am 07:55 Sunny 24 -4.6 20 -6.5 87 87 SSE 8 13 30.56 1035 10 16.0934 0 0
8:15 am 08:15 Sunny 23 -4.8 20 -6.5 88 88 S 8 13 30.56 1035 10 16.0934 0 0
8:35 am 08:35 Sunny 24 -4.5 21 -6.3 87 87 S 12 19 30.53 1034 10 16.0934 0 0
8:55 am 08:55 Sunny 25 -4 22 -5.8 87 87 S 13 20 30.53 1034 10 16.0934 0 0
9:15 am 09:15 Sunny 26 -3.6 22 -5.6 86 86 SSE 12 19 30.53 1034 10 16.0934 0 0
9:35 am 09:35 Sunny 27 -3 23 -5.1 86 86 S 10 17 30.5 1033 10 16.0934 0 0
9:55 am 09:55 Sunny 28 -2.5 23 -4.9 84 84 S 12 19 30.5 1033 10 16.0934 0 0
10:15 am 10:15 Sunny 28 -2 24 -4.6 83 83 S 12 19 30.5 1033 10 16.0934 0 0
10:35 am 10:35 Sunny 30 -1 25 -4 80 80 S 9 15 30.5 1033 10 16.0934 0 0
10:55 am 10:55 Sunny 31 -0.3 26 -3.5 79 79 S 8 13 30.48 1032 10 16.0934 0 0
11:15 am 11:15 Sunny 35 1.5 27 -3 72 72 S 12 19 30.45 1031 10 16.0934 0 0
11:35 am 11:35 Sunny 38 3.2 26 -3.6 61 61 S 15 24 30.42 1030 10 16.0934 0 0
11:55 am 11:55 Sunny 39 4 25 -3.7 58 58 S 18 30 30.42 1030 10 16.0934 0 0
12:15 pm 12:15 Sunny 40 4.2 25 -4 56 56 S 15 24 30.39 1029 10 16.0934 0 0
12:35 pm 12:35 Sunny 40 4.5 25 -4 54 54 SSW 20 31 30.39 1029 10 16.0934 0 0
12:55 pm 12:55 Mostly Cloudy 41 5 25 -3.8 53 53 S 17 28 30.36 1028 10 16.0934 0 0
1:15 pm 13:15 Cloudy 42 5.7 24 -4.4 49 49 S 17 28 30.33 1027 10 16.0934 0 0
1:35 pm 13:35 Cloudy 42 5.6 24 -4.4 49 49 S 17 28 30.33 1027 10 16.0934 0 0
1:55 pm 13:55 Cloudy 42 5.7 25 -4.1 50 50 S 15 24 30.3 1026 10 16.0934 0 0
2:15 pm 14:15 Cloudy 42 5.5 25 -4 51 51 S 16 26 30.3 1026 10 16.0934 0 0
2:35 pm 14:35 Cloudy 43 6 25 -3.7 50 50 S 16 26 30.3 1026 10 16.0934 0 0
2:55 pm 14:55 Cloudy 44 6.5 25 -3.8 48 48 S 18 30 30.27 1025 10 16.0934 0 0
3:15 pm 15:15 Cloudy 44 6.5 24 -4.3 46 46 S 15 24 30.27 1025 10 16.0934 0 0
3:35 pm 15:35 Cloudy 44 6.5 24 -4.2 47 47 S 15 24 30.27 1025 10 16.0934 0 0
3:55 pm 15:55 Cloudy 44 6.6 24 -4.2 46 46 S 14 22 30.27 1025 10 16.0934 0 0
4:15 pm 16:15 Cloudy 44 6.7 24 -4.5 45 45 S 16 26 30.27 1025 10 16.0934 0 0
4:35 pm 16:35 Cloudy 43 6.3 24 -4.3 47 47 S 16 26 30.27 1025 10 16.0934 0 0
4:55 pm 16:55 Cloudy 43 6.1 25 -4.1 48 48 S 13 20 30.27 1025 10 16.0934 0 0
5:15 pm 17:15 Cloudy 43 6.1 25 -4 49 49 S 18 30 30.27 1025 10 16.0934 0 0
5:35 pm 17:35 Cloudy 42 5.7 25 -3.7 51 51 S 14 22 30.24 1024 10 16.0934 0 0
5:55 pm 17:55 Cloudy 42 5.5 25 -3.7 52 52 S 9 15 30.24 1024 10 16.0934 0 0
6:15 pm 18:15 Cloudy 42 5.4 26 -3.6 53 53 S 10 17 30.24 1024 10 16.0934 0 0
6:35 pm 18:35 Cloudy 42 5.3 26 -3.6 53 53 S 12 19 30.24 1024 10 16.0934 0 0
6:55 pm 18:55 Cloudy 42 5.3 26 -3.3 54 54 SSW 13 20 30.24 1024 10 16.0934 0 0
7:15 pm 19:15 Cloudy 41 5.2 28 -2.5 58 58 SSW 17 28 30.24 1024 10 16.0934 0 0
7:35 pm 19:35 Cloudy 40 4.7 30 -1.1 66 66 SSW 18 30 30.24 1024 10 16.0934 0 0
7:55 pm 19:55 Cloudy 39 3.9 32 0 76 76 S 13 20 30.27 1025 10 16.0934 0 0
8:15 pm 20:15 Cloudy 38 3.5 32 0 78 78 S 10 17 30.27 1025 10 16.0934 0 0
8:35 pm 20:35 Cloudy 38 3.5 32 0 78 78 S 17 28 30.3 1026 10 16.0934 0 0
8:55 pm 20:55 Cloudy 38 3.1 32 0 80 80 S 15 24 30.27 1025 10 16.0934 0 0
9:15 pm 21:15 Cloudy 37 2.6 32 0 83 83 S 15 24 30.27 1025 10 16.0934 0 0
9:35 pm 21:35 Cloudy with Light Drizzle 36 2.1 32 0.1 87 87 S 13 20 30.27 1025 10 16.0934 0 0
9:55 pm 21:55 Cloudy with Light Drizzle 35 1.6 32 0.1 90 90 S 12 19 30.27 1025 10 16.0934 0 0
10:15 pm 22:15 Cloudy 35 1.5 32 0.2 91 91 S 10 17 30.27 1025 10 16.0934 0 0
10:35 pm 22:35 Cloudy 35 1.5 33 0.3 92 92 S 9 15 30.27 1025 10 16.0934 0 0
10:55 pm 22:55 Cloudy 35 1.5 33 0.3 92 92 S 12 19 30.27 1025 10 16.0934 0 0
11:15 pm 23:15 Cloudy with Light Drizzle 34 1.3 32 0.2 92 92 S 10 17 30.3 1026 7 11.26538 0 0
11:35 pm 23:35 Cloudy with Light Drizzle 34 1 32 0 93 93 S 9 15 30.3 1026 7 11.26538 0 0
11:55 pm 23:55 Cloudy with Light Rain 34 1 32 0 93 93 S 7 11 30.27 1025 7 11.26538 0 0

Powered by AerisWeather